Home   Weather   Pittsfield   Past weeks
Flag for USA

Past Weather in Pittsfield, Massachusetts, USA — Yesterday and Last 2 Weeks

Now
47 °F

Partly sunny.


Feels Like: 40 °F
Forecast: 47 / 40 °F
Wind: 18 mph from West

Location: Pittsfield Municipal Airport

Current Time: Oct 18, 2019 at 12:20:00 pm

Latest Report: Oct 18, 2019 at 10:54 am


Visibility: 10 mi

Pressure: 29.73 "Hg

Humidity: 71%

Dew Point: 38 °F

Location of PittsfieldLocation

Past Weather in Pittsfield — Graph

°F

Pittsfield Temperature Yesterday

Maximum temperature yesterday: 51 °F (at 12:29 am)
Minimum temperature yesterday: 42 °F (at 6:54 am)
Average temperature yesterday: 45 °F

High & Low Weather Summary for the Past Weeks

 TemperatureHumidityPressure
High67 °F (Oct 14, 3:54 pm)100% (Oct 5, 7:54 am)30.45 "Hg (Oct 5, 7:54 am)
Low30 °F (Oct 5, 6:56 am)25% (Oct 10, 2:54 pm)29.01 "Hg (Oct 17, 5:54 am)
Average51 °F74%30.00 "Hg
* Reported Oct 3 10:08 am — Oct 18 10:54 am, Pittsfield. Weather by CustomWeather, © 2019

Note: Actual official high and low records may vary slightly from our data, if they occured in-between our weather recording intervals... More about our weather records

Advertising

Pittsfield Weather History for the Previous 24 Hours

Scroll right to see more
 ConditionsComfort  
Time TempWeatherWind HumidityBarometerVisibility
10:54 am
Fri, Oct 18
47 °FPartly sunny.18 mph71%29.73 "Hg10 mi
10:04 am45 °FPartly sunny.17 mph74%29.73 "Hg10 mi
9:54 am45 °FScattered clouds.21 mph71%29.71 "Hg10 mi
9:37 am45 °FScattered clouds.25 mph74%29.71 "Hg10 mi
8:54 am44 °FPartly sunny.15 mph73%29.71 "Hg10 mi
8:09 am43 °FScattered clouds.20 mph76%29.69 "Hg10 mi
7:54 am43 °FPartly sunny.15 mph79%29.67 "Hg10 mi
7:04 am44 °FMostly cloudy.22 mph79%29.67 "Hg10 mi
5:54 am44 °FOvercast.17 mph79%29.63 "Hg10 mi
4:54 am44 °FOvercast.13 mph82%29.60 "Hg10 mi
3:54 am45 °FOvercast.16 mph80%29.56 "Hg10 mi
2:54 am45 °FPassing clouds.20 mph80%29.54 "Hg10 mi
1:54 am46 °FOvercast.21 mph77%29.54 "Hg10 mi
1:09 am46 °FMostly cloudy.17 mph79%29.53 "Hg10 mi
12:54 am46 °FMostly cloudy.23 mph79%29.50 "Hg10 mi
11:54 pm
Thu, Oct 17
46 °FLight rain. Overcast.20 mph79%29.47 "Hg10 mi
11:34 pm46 °FOvercast.22 mph83%29.48 "Hg10 mi
10:54 pm46 °FLight rain. Fog.15 mph86%29.44 "Hg4 mi
10:39 pm46 °FLight rain. Fog.15 mph86%29.46 "Hg6 mi
9:54 pm46 °FLight rain. Mostly cloudy.15 mph86%29.42 "Hg9 mi
8:54 pm46 °FLight rain. Mostly cloudy.20 mph83%29.38 "Hg9 mi
7:54 pm47 °FMostly cloudy.15 mph77%29.34 "Hg10 mi
6:54 pm47 °FMostly cloudy.15 mph80%29.31 "Hg10 mi
5:54 pm47 °FMostly cloudy.21 mph80%29.26 "Hg10 mi
4:54 pm47 °FBroken clouds.21 mph83%29.21 "Hg10 mi
3:54 pm46 °FLight rain. Mostly cloudy.24 mph86%29.18 "Hg9 mi
2:54 pm46 °FLight rain. Mostly cloudy.16 mph83%29.14 "Hg7 mi
1:54 pm44 °FLight rain. Mostly cloudy.20 mph85%29.10 "Hg9 mi
12:54 pm45 °FLight rain. Mostly cloudy.24 mph82%29.07 "Hg7 mi
12:18 pm45 °FLight rain. Mostly cloudy.25 mph82%29.09 "Hg5 mi
Weather by CustomWeather, © 2019

See weather overview